Location: Joplin
(37.0842°N, 94.5131°W)
Time: 00:10:48
(UTC-06:00)

Envisat - Visible Passes

Search period start: 22 January 2019 00:00
Search period end: 01 February 2019 00:00
Orbit: 764 x 766 km, 98.2° (Epoch: 20 January)

Date Brightness Start Highest point End Pass type
(mag) Time Alt. Az. Time Alt. Az. Time Alt. Az.
22 Jan 2.9 19:07:19 10° SSE 19:12:23 87° WSW 19:17:30 10° NNW visible
23 Jan 3.4 18:31:04 10° SE 18:35:46 40° ENE 18:40:30 10° N visible
23 Jan 5.4 20:11:10 10° SW 20:14:55 21° W 20:18:40 10° NW visible
24 Jan 6.0 06:43:16 10° NE 06:46:27 17° E 06:49:37 10° SE visible
24 Jan 4.3 17:55:55 10° ESE 17:59:21 19° ENE 18:02:47 10° NNE visible
24 Jan 3.9 19:33:05 10° S 19:37:58 47° W 19:42:52 10° NNW visible
25 Jan 2.9 18:56:10 10° SSE 19:01:12 74° ENE 19:06:17 10° N visible
25 Jan 6.1 20:39:29 10° WSW 20:40:42 11° W 20:41:56 10° WNW visible
26 Jan 3.7 18:20:11 10° SE 18:24:38 32° ENE 18:29:07 10° N visible
26 Jan 5.1 19:59:24 10° SSW 20:03:37 26° W 20:07:52 10° NW visible
27 Jan 6.3 06:32:58 10° ENE 06:35:08 13° E 06:37:18 10° ESE visible
27 Jan 3.5 19:21:43 10° S 19:26:44 62° W 19:31:46 10° NNW visible
28 Jan 3.0 18:45:05 10° SSE 18:50:02 57° ENE 18:55:01 10° N visible
28 Jan 5.9 20:26:41 10° SW 20:29:22 14° W 20:32:05 10° WNW visible
29 Jan 5.8 06:56:53 10° NE 07:00:55 23° E 07:04:55 10° SSE visible
29 Jan 3.9 18:09:25 10° ESE 18:13:31 25° ENE 18:17:38 10° NNE visible
29 Jan 4.6 19:47:48 10° SSW 19:52:21 33° W 19:56:56 10° NNW visible
30 Jan 3.1 19:10:27 10° S 19:15:31 79° WSW 19:20:37 10° NNW visible
31 Jan 3.3 18:34:05 10° SE 18:38:52 44° ENE 18:43:41 10° N visible
31 Jan 5.6 20:14:34 10° SW 20:18:04 19° W 20:21:35 10° NW visible
